Tracking 20719 objects as of 25-May-2020
HD Live streaming from Space Station
objects crossing your sky now

IRIDIUM 33 DEB

Track IRIDIUM 33 DEB now!
10-day predictions


NORAD ID: 33873
Int'l Code: 1997-051AS
Perigee: 688.2 km
Apogee: 723.1 km
Inclination: 86.4 °
Period: 98.7 minutes
Semi major axis: 7076 km
RCS: 0.1366 m2 (medium)
Launch date: September 14, 1997
Source: United States (US)
Launch site: TYURATAM MISSILE AND SPACE COMPLEX (TTMTR)

Note: This is SATELLITE DEBRIS
aabbcc
Your satellite tracking list
Your tracking list is empty




NASA's NSSDC Master Catalog

Two Line Element Set (TLE):
1 33873U 97051AS  20145.12284912 +.00001454 +00000-0 +30838-3 0  9996
2 33873 086.3669 150.7611 0024638 177.4940 182.6398 14.58341268595367
Source of the keplerian elements: AFSPC